SDG090 LEAS-GCLP

Flight info

Callsign SDG090
Flight time 2h 49m
Altitude 35000
Route DELAP MERAN KONDA CEMENTERA
Aircraft A321/M-L/C

Departure

Time 2026-04-16 08:08
Airport Asturias Airport (LEAS)

Arrival

Time 2026-04-16 10:57
Airport Gran Canaria Airport (GCLP)
Time Latitude Longitude Altitude Speed Heading
2026-04-16 08:08 43.50172 -6.22064 7681 ft 254 kts 199°
2026-04-16 08:08 43.48501 -6.22810 8345 ft 255 kts 200°
2026-04-16 08:08 43.46793 -6.23477 9022 ft 257 kts 194°
2026-04-16 08:08 43.45026 -6.23937 9549 ft 266 kts 191°
2026-04-16 08:09 43.43133 -6.24376 9897 ft 279 kts 191°
2026-04-16 08:09 43.41207 -6.24813 10005 ft 281 kts 191°
2026-04-16 08:09 43.39291 -6.25244 10008 ft 279 kts 191°
2026-04-16 08:09 43.37365 -6.25679 10007 ft 279 kts 191°
2026-04-16 08:10 43.35467 -6.26109 10007 ft 278 kts 192°
2026-04-16 08:10 43.33551 -6.26548 10003 ft 279 kts 192°
2026-04-16 08:10 43.31602 -6.26996 10176 ft 286 kts 192°
2026-04-16 08:10 43.29600 -6.27456 10489 ft 301 kts 192°
2026-04-16 08:11 43.27475 -6.27943 10781 ft 316 kts 191°
2026-04-16 08:11 43.25261 -6.28443 11074 ft 329 kts 191°
2026-04-16 08:11 43.22984 -6.28960 11372 ft 342 kts 192°
2026-04-16 08:11 43.20591 -6.29505 11674 ft 354 kts 192°
2026-04-16 08:12 43.18122 -6.30061 12082 ft 361 kts 192°
2026-04-16 08:12 43.15650 -6.30618 12579 ft 362 kts 192°
2026-04-16 08:12 43.13141 -6.31281 12958 ft 368 kts 197°
2026-04-16 08:12 43.10703 -6.32331 13263 ft 373 kts 203°
2026-04-16 08:13 43.08300 -6.33823 13466 ft 383 kts 210°
2026-04-16 08:13 43.05953 -6.35606 13780 ft 386 kts 212°
2026-04-16 08:13 43.03622 -6.37424 14153 ft 390 kts 212°
2026-04-16 08:13 43.01279 -6.39257 14564 ft 391 kts 213°
2026-04-16 08:14 42.98914 -6.41108 14924 ft 395 kts 213°
2026-04-16 08:14 42.96527 -6.42974 15320 ft 398 kts 213°
2026-04-16 08:14 42.94098 -6.44869 15740 ft 401 kts 213°
2026-04-16 08:14 42.91659 -6.46768 16159 ft 404 kts 213°
2026-04-16 08:15 42.89231 -6.48654 16543 ft 406 kts 213°
2026-04-16 08:15 42.86764 -6.50569 16909 ft 409 kts 213°
2026-04-16 08:15 42.84290 -6.52489 17279 ft 411 kts 213°
2026-04-16 08:15 42.81795 -6.54419 17632 ft 414 kts 213°
2026-04-16 08:16 42.79253 -6.56381 18008 ft 417 kts 213°
2026-04-16 08:16 42.76725 -6.58330 18375 ft 420 kts 213°
2026-04-16 08:16 42.74209 -6.60269 18590 ft 422 kts 213°
2026-04-16 08:16 42.71646 -6.62243 18831 ft 423 kts 213°
2026-04-16 08:17 42.69065 -6.64231 19086 ft 424 kts 213°
2026-04-16 08:17 42.66495 -6.66209 19367 ft 425 kts 213°
2026-04-16 08:17 42.63924 -6.68186 19743 ft 426 kts 213°
2026-04-16 08:17 42.61357 -6.70158 20092 ft 428 kts 213°
2026-04-16 08:18 42.58757 -6.72154 20434 ft 431 kts 213°
2026-04-16 08:19 42.40215 -6.86323 22636 ft 443 kts 213°
2026-04-16 08:20 42.37521 -6.88374 22912 ft 446 kts 212°
2026-04-16 08:20 42.34843 -6.90411 23174 ft 448 kts 212°
2026-04-16 08:20 42.32100 -6.92493 23437 ft 450 kts 212°
2026-04-16 08:20 42.29377 -6.94559 23703 ft 451 kts 212°
2026-04-16 08:21 42.26626 -6.96645 23966 ft 453 kts 212°
2026-04-16 08:21 42.23891 -6.98716 24230 ft 454 kts 212°
2026-04-16 08:21 42.21149 -7.00790 24496 ft 456 kts 212°
2026-04-16 08:21 42.18385 -7.02878 24772 ft 457 kts 212°
2026-04-16 08:22 42.15584 -7.04992 25126 ft 456 kts 212°
2026-04-16 08:22 42.12837 -7.07063 25493 ft 455 kts 212°
2026-04-16 08:22 42.10108 -7.09118 25855 ft 454 kts 212°
2026-04-16 08:22 42.07335 -7.11205 26213 ft 453 kts 212°
2026-04-16 08:23 42.04615 -7.13250 26565 ft 452 kts 212°
2026-04-16 08:23 42.01839 -7.15335 26925 ft 452 kts 212°
2026-04-16 08:23 41.99110 -7.17384 27288 ft 451 kts 212°
2026-04-16 08:23 41.96395 -7.19420 27657 ft 450 kts 212°
2026-04-16 08:24 41.93680 -7.21454 28027 ft 449 kts 212°
2026-04-16 08:24 41.90955 -7.23494 28391 ft 448 kts 212°
2026-04-16 08:24 41.88211 -7.25545 28755 ft 447 kts 212°
2026-04-16 08:24 41.85515 -7.27558 29102 ft 446 kts 212°
2026-04-16 08:25 41.82814 -7.29572 29464 ft 446 kts 212°
2026-04-16 08:25 41.80109 -7.31588 29834 ft 445 kts 212°
2026-04-16 08:25 41.77389 -7.33613 30198 ft 444 kts 212°
2026-04-16 08:25 41.74701 -7.35611 30562 ft 443 kts 212°
2026-04-16 08:26 41.72028 -7.37597 30922 ft 442 kts 212°
2026-04-16 08:26 41.69341 -7.39592 31276 ft 441 kts 212°
2026-04-16 08:26 41.66669 -7.41573 31615 ft 440 kts 212°
2026-04-16 08:26 41.63981 -7.43565 31936 ft 439 kts 212°
2026-04-16 08:27 41.61335 -7.45525 32241 ft 439 kts 212°
2026-04-16 08:27 41.58659 -7.47505 32561 ft 438 kts 212°
2026-04-16 08:27 41.56000 -7.49470 32872 ft 438 kts 212°
2026-04-16 08:27 41.53333 -7.51439 33179 ft 437 kts 212°
2026-04-16 08:28 41.50690 -7.53388 33474 ft 437 kts 213°
2026-04-16 08:28 41.48023 -7.55353 33745 ft 437 kts 213°
2026-04-16 08:28 41.45360 -7.57313 33979 ft 438 kts 213°
2026-04-16 08:28 41.42704 -7.59267 34199 ft 439 kts 213°
2026-04-16 08:29 41.40006 -7.61250 34421 ft 440 kts 213°
2026-04-16 08:29 41.37329 -7.63216 34635 ft 440 kts 213°
2026-04-16 08:29 41.34650 -7.65180 34815 ft 441 kts 212°
2026-04-16 08:29 41.31972 -7.67140 34994 ft 442 kts 212°
2026-04-16 08:30 41.29300 -7.69095 35168 ft 442 kts 212°
2026-04-16 08:30 41.26589 -7.71077 35274 ft 443 kts 212°
2026-04-16 08:30 41.21187 -7.75020 35301 ft 443 kts 212°
2026-04-16 08:31 41.15825 -7.78927 35304 ft 442 kts 212°
2026-04-16 08:31 41.10450 -7.82837 35250 ft 441 kts 212°
2026-04-16 08:32 41.05051 -7.86758 35240 ft 441 kts 212°
2026-04-16 08:32 40.99706 -7.90632 35257 ft 440 kts 212°
2026-04-16 08:33 40.94311 -7.94535 35269 ft 440 kts 212°
2026-04-16 08:33 40.88976 -7.98387 35275 ft 439 kts 212°
2026-04-16 08:34 40.83609 -8.02254 35267 ft 439 kts 212°
2026-04-16 08:34 40.78257 -8.06102 35247 ft 437 kts 213°
2026-04-16 08:35 40.72945 -8.09916 35241 ft 436 kts 213°
2026-04-16 08:35 40.67606 -8.13743 35243 ft 435 kts 213°
2026-04-16 08:36 40.62328 -8.17519 35243 ft 435 kts 213°
2026-04-16 08:36 40.57017 -8.21311 35240 ft 434 kts 213°
2026-04-16 08:37 40.51697 -8.25103 35231 ft 434 kts 213°
2026-04-16 08:37 40.46432 -8.28849 35224 ft 433 kts 213°
2026-04-16 08:38 40.41113 -8.32630 35225 ft 433 kts 213°
2026-04-16 08:38 40.35842 -8.36369 35232 ft 433 kts 213°
2026-04-16 08:39 40.30508 -8.40146 35239 ft 433 kts 213°
2026-04-16 08:39 40.25243 -8.43866 35245 ft 433 kts 213°
2026-04-16 08:40 40.19940 -8.47606 35246 ft 433 kts 213°
2026-04-16 08:40 40.14633 -8.51341 35246 ft 433 kts 213°
2026-04-16 08:41 40.09353 -8.55050 35246 ft 433 kts 213°
2026-04-16 08:41 40.04058 -8.58764 35246 ft 432 kts 213°
2026-04-16 08:42 39.98743 -8.62486 35245 ft 432 kts 213°
2026-04-16 08:42 39.93476 -8.66167 35236 ft 432 kts 212°
2026-04-16 08:43 39.88152 -8.69881 35233 ft 432 kts 212°
2026-04-16 08:43 39.82869 -8.73560 35242 ft 432 kts 212°
2026-04-16 08:44 39.77584 -8.77235 35245 ft 431 kts 212°
2026-04-16 08:44 39.72298 -8.80903 35246 ft 431 kts 212°
2026-04-16 08:45 39.66988 -8.84581 35246 ft 431 kts 212°
2026-04-16 08:45 39.61733 -8.88216 35245 ft 431 kts 212°
2026-04-16 08:46 39.56428 -8.91879 35244 ft 431 kts 212°
2026-04-16 08:46 39.51149 -8.95517 35244 ft 431 kts 212°
2026-04-16 08:47 39.45836 -8.99172 35242 ft 431 kts 212°
2026-04-16 08:47 39.40540 -9.02809 35241 ft 431 kts 212°
2026-04-16 08:48 39.35441 -9.06304 35238 ft 431 kts 212°
2026-04-16 08:48 39.30312 -9.09815 35235 ft 431 kts 212°
2026-04-16 08:49 39.25012 -9.13437 35231 ft 431 kts 212°
2026-04-16 08:49 39.19696 -9.17064 35227 ft 431 kts 212°
2026-04-16 08:50 39.14422 -9.20654 35224 ft 431 kts 212°
2026-04-16 08:50 39.09095 -9.24276 35222 ft 432 kts 212°
2026-04-16 08:51 39.03798 -9.27871 35220 ft 432 kts 212°
2026-04-16 08:51 38.98468 -9.31481 35219 ft 432 kts 212°
2026-04-16 08:52 38.93174 -9.35060 35219 ft 432 kts 212°
2026-04-16 08:52 38.87868 -9.38643 35218 ft 432 kts 212°
2026-04-16 08:53 38.82541 -9.42234 35218 ft 432 kts 212°
2026-04-16 08:53 38.77240 -9.45801 35218 ft 432 kts 212°
2026-04-16 08:54 38.71900 -9.49389 35219 ft 432 kts 212°
2026-04-16 08:54 38.66576 -9.52962 35219 ft 432 kts 212°
2026-04-16 08:55 38.61250 -9.56530 35218 ft 433 kts 212°
2026-04-16 08:55 38.55936 -9.60082 35218 ft 433 kts 212°
2026-04-16 08:56 38.50581 -9.63657 35220 ft 438 kts 212°
2026-04-16 08:56 38.45170 -9.67262 35221 ft 439 kts 211°
2026-04-16 08:57 38.39749 -9.70867 35221 ft 439 kts 211°
2026-04-16 08:57 38.34355 -9.74446 35221 ft 439 kts 211°
2026-04-16 08:58 38.28942 -9.78034 35221 ft 439 kts 211°
2026-04-16 08:58 38.23533 -9.81611 35221 ft 439 kts 211°
2026-04-16 08:59 38.18082 -9.85211 35221 ft 439 kts 211°
2026-04-16 08:59 38.12671 -9.88778 35222 ft 439 kts 211°
2026-04-16 09:00 38.07270 -9.92334 35222 ft 439 kts 211°
2026-04-16 09:00 38.01833 -9.95905 35222 ft 438 kts 211°
2026-04-16 09:01 37.93717 -10.01226 35222 ft 438 kts 211°
2026-04-16 09:02 37.88293 -10.04775 35218 ft 438 kts 211°
2026-04-16 09:02 37.82892 -10.08304 35211 ft 439 kts 211°
2026-04-16 09:03 37.77455 -10.11851 35208 ft 439 kts 211°
2026-04-16 09:03 37.72049 -10.15371 35206 ft 439 kts 210°
2026-04-16 09:04 37.66605 -10.18910 35205 ft 439 kts 210°
2026-04-16 09:04 37.61171 -10.22436 35204 ft 439 kts 210°
2026-04-16 09:05 37.55777 -10.25931 35203 ft 439 kts 210°
2026-04-16 09:05 37.50348 -10.29443 35201 ft 439 kts 210°
2026-04-16 09:06 37.44887 -10.32969 35200 ft 439 kts 210°
2026-04-16 09:06 37.39467 -10.36463 35198 ft 439 kts 210°
2026-04-16 09:07 37.34023 -10.39967 35197 ft 439 kts 210°
2026-04-16 09:07 37.28573 -10.43469 35196 ft 439 kts 210°
2026-04-16 09:08 37.23150 -10.46948 35195 ft 439 kts 210°
2026-04-16 09:08 37.17727 -10.50422 35195 ft 440 kts 210°
2026-04-16 09:09 37.12252 -10.53923 35194 ft 440 kts 210°
2026-04-16 09:09 37.06823 -10.57389 35193 ft 440 kts 210°
2026-04-16 09:10 37.01367 -10.60866 35193 ft 439 kts 210°
2026-04-16 09:10 36.95935 -10.64322 35193 ft 439 kts 210°
2026-04-16 09:11 36.90493 -10.67779 35198 ft 440 kts 209°
2026-04-16 09:11 36.85032 -10.71243 35202 ft 440 kts 209°
2026-04-16 09:12 36.79558 -10.74710 35204 ft 440 kts 209°
2026-04-16 09:12 36.74103 -10.78159 35204 ft 440 kts 209°
2026-04-16 09:13 36.68641 -10.81606 35204 ft 440 kts 209°
2026-04-16 09:13 36.63184 -10.85045 35203 ft 440 kts 209°
2026-04-16 09:14 36.57713 -10.88488 35200 ft 440 kts 208°
2026-04-16 09:14 36.52262 -10.91912 35195 ft 440 kts 208°
2026-04-16 09:15 36.46801 -10.95337 35193 ft 440 kts 208°
2026-04-16 09:15 36.41323 -10.98769 35193 ft 440 kts 208°
2026-04-16 09:16 36.35840 -11.02197 35192 ft 440 kts 208°
2026-04-16 09:16 36.30394 -11.05594 35191 ft 441 kts 208°
2026-04-16 09:17 36.24892 -11.09022 35191 ft 441 kts 208°
2026-04-16 09:17 36.19450 -11.12407 35190 ft 441 kts 208°
2026-04-16 09:18 36.13965 -11.15815 35189 ft 441 kts 208°
2026-04-16 09:18 36.08470 -11.19223 35188 ft 441 kts 208°
2026-04-16 09:19 36.02979 -11.22624 35187 ft 441 kts 208°
2026-04-16 09:19 35.97517 -11.26001 35187 ft 441 kts 208°
2026-04-16 09:20 35.92014 -11.29399 35186 ft 441 kts 208°
2026-04-16 09:20 35.86521 -11.32786 35178 ft 442 kts 208°
2026-04-16 09:21 35.81040 -11.36161 35173 ft 442 kts 208°
2026-04-16 09:21 35.75508 -11.39562 35180 ft 443 kts 207°
2026-04-16 09:22 35.70007 -11.42936 35184 ft 443 kts 207°
2026-04-16 09:22 35.64499 -11.46309 35184 ft 443 kts 207°
2026-04-16 09:23 35.58946 -11.49705 35182 ft 443 kts 207°
2026-04-16 09:23 35.53455 -11.53057 35181 ft 443 kts 207°
2026-04-16 09:24 35.47925 -11.56430 35179 ft 443 kts 207°
2026-04-16 09:24 35.42408 -11.59789 35177 ft 443 kts 207°
2026-04-16 09:25 35.36891 -11.63143 35166 ft 443 kts 207°
2026-04-16 09:25 35.31355 -11.66502 35153 ft 443 kts 207°
2026-04-16 09:26 35.25873 -11.69826 35147 ft 443 kts 207°
2026-04-16 09:26 35.20338 -11.73175 35146 ft 443 kts 206°
2026-04-16 09:27 35.14808 -11.76516 35146 ft 443 kts 206°
2026-04-16 09:27 35.09259 -11.79864 35147 ft 443 kts 206°
2026-04-16 09:28 35.03720 -11.83201 35147 ft 444 kts 206°
2026-04-16 09:28 34.98192 -11.86527 35176 ft 445 kts 206°
2026-04-16 09:29 34.92617 -11.89879 35197 ft 448 kts 205°
2026-04-16 09:29 34.86994 -11.93251 35171 ft 451 kts 205°
2026-04-16 09:30 34.81364 -11.96617 35152 ft 452 kts 205°
2026-04-16 09:30 34.75715 -11.99992 35150 ft 452 kts 205°
2026-04-16 09:31 34.70041 -12.03377 35151 ft 453 kts 205°
2026-04-16 09:31 34.64379 -12.06751 35155 ft 453 kts 205°
2026-04-16 09:32 34.58739 -12.10106 35158 ft 454 kts 205°
2026-04-16 09:32 34.53053 -12.13484 35157 ft 454 kts 205°
2026-04-16 09:33 34.47372 -12.16854 35156 ft 454 kts 205°
2026-04-16 09:33 34.41701 -12.20213 35155 ft 455 kts 205°
2026-04-16 09:34 34.36039 -12.23562 35155 ft 455 kts 205°
2026-04-16 09:34 34.30347 -12.26920 35155 ft 455 kts 205°
2026-04-16 09:35 34.24643 -12.30279 35156 ft 455 kts 205°
2026-04-16 09:35 34.18964 -12.33621 35156 ft 455 kts 205°
2026-04-16 09:36 34.13272 -12.36966 35156 ft 455 kts 205°
2026-04-16 09:36 34.07555 -12.40320 35156 ft 455 kts 205°
2026-04-16 09:37 34.01876 -12.43649 35156 ft 455 kts 205°
2026-04-16 09:37 33.96198 -12.46972 35153 ft 455 kts 205°
2026-04-16 09:38 33.90481 -12.50311 35151 ft 455 kts 205°
2026-04-16 09:38 33.84779 -12.53637 35154 ft 455 kts 205°
2026-04-16 09:39 33.79076 -12.56960 35155 ft 456 kts 205°
2026-04-16 09:39 33.73375 -12.60274 35156 ft 456 kts 205°
2026-04-16 09:40 33.67685 -12.63579 35156 ft 456 kts 205°
2026-04-16 09:40 33.61974 -12.66891 35154 ft 456 kts 205°
2026-04-16 09:41 33.56246 -12.70209 35150 ft 457 kts 205°
2026-04-16 09:41 33.50493 -12.73535 35145 ft 457 kts 205°
2026-04-16 09:42 33.44783 -12.76832 35144 ft 457 kts 205°
2026-04-16 09:42 33.39042 -12.80142 35144 ft 457 kts 205°
2026-04-16 09:43 33.33315 -12.83440 35145 ft 457 kts 205°
2026-04-16 09:43 33.27577 -12.86738 35145 ft 458 kts 205°
2026-04-16 09:44 33.21831 -12.90035 35145 ft 458 kts 205°
2026-04-16 09:44 33.16085 -12.93329 35146 ft 461 kts 205°
2026-04-16 09:45 33.10276 -12.96654 35145 ft 464 kts 205°
2026-04-16 09:45 33.04444 -12.99987 35147 ft 464 kts 205°
2026-04-16 09:46 32.98595 -13.03325 35153 ft 464 kts 205°
2026-04-16 09:46 32.92793 -13.06631 35160 ft 464 kts 205°
2026-04-16 09:47 32.86948 -13.09956 35163 ft 465 kts 205°
2026-04-16 09:47 32.81121 -13.13267 35163 ft 465 kts 205°
2026-04-16 09:48 32.75270 -13.16587 35164 ft 466 kts 205°
2026-04-16 09:48 32.69416 -13.19903 35164 ft 466 kts 206°
2026-04-16 09:49 32.63562 -13.23214 35164 ft 466 kts 206°
2026-04-16 09:49 32.57737 -13.26504 35161 ft 466 kts 206°
2026-04-16 09:50 32.51882 -13.29806 35149 ft 466 kts 206°
2026-04-16 09:50 32.45990 -13.33126 35136 ft 467 kts 206°
2026-04-16 09:51 32.40139 -13.36416 35132 ft 467 kts 206°
2026-04-16 09:51 32.34256 -13.39720 35131 ft 468 kts 206°
2026-04-16 09:52 32.28364 -13.43025 35131 ft 468 kts 206°
2026-04-16 09:52 32.22476 -13.46323 35132 ft 469 kts 206°
2026-04-16 09:53 32.16577 -13.49621 35132 ft 469 kts 206°
2026-04-16 09:53 32.10675 -13.52916 35133 ft 470 kts 206°
2026-04-16 09:54 32.04740 -13.56225 35133 ft 470 kts 206°
2026-04-16 09:54 31.98820 -13.59520 35134 ft 471 kts 206°
2026-04-16 09:55 31.92924 -13.62799 35134 ft 471 kts 206°
2026-04-16 09:55 31.86977 -13.66100 35130 ft 471 kts 206°
2026-04-16 09:56 31.81022 -13.69402 35130 ft 472 kts 206°
2026-04-16 09:56 31.75095 -13.72684 35140 ft 472 kts 206°
2026-04-16 09:57 31.69164 -13.75964 35144 ft 472 kts 206°
2026-04-16 09:57 31.63205 -13.79254 35144 ft 472 kts 206°
2026-04-16 09:58 31.57258 -13.82531 35143 ft 472 kts 206°
2026-04-16 09:58 31.51339 -13.85789 35139 ft 471 kts 206°
2026-04-16 09:59 31.45402 -13.89053 35135 ft 471 kts 206°
2026-04-16 09:59 31.39471 -13.92307 35130 ft 471 kts 206°
2026-04-16 10:00 31.33503 -13.95578 35129 ft 471 kts 206°
2026-04-16 10:00 31.27581 -13.98819 35128 ft 470 kts 206°
2026-04-16 10:01 31.18698 -14.03671 35127 ft 467 kts 207°
2026-04-16 10:01 31.12846 -14.06860 35131 ft 466 kts 207°
2026-04-16 10:02 31.06924 -14.10084 35129 ft 467 kts 207°
2026-04-16 10:02 31.01027 -14.13294 35124 ft 467 kts 208°
2026-04-16 10:03 30.95133 -14.16496 35121 ft 467 kts 208°
2026-04-16 10:03 30.89251 -14.19688 35119 ft 467 kts 208°
2026-04-16 10:04 30.83316 -14.22904 35118 ft 467 kts 208°
2026-04-16 10:04 30.77432 -14.26087 35117 ft 467 kts 208°
2026-04-16 10:05 30.71518 -14.29282 35116 ft 467 kts 208°
2026-04-16 10:05 30.65628 -14.32460 35115 ft 467 kts 208°
2026-04-16 10:06 30.59723 -14.35642 35113 ft 467 kts 208°
2026-04-16 10:06 30.53808 -14.38825 35113 ft 467 kts 209°
2026-04-16 10:07 30.47911 -14.41994 35112 ft 467 kts 209°
2026-04-16 10:07 30.42000 -14.45166 35111 ft 467 kts 209°
2026-04-16 10:08 30.36087 -14.48335 35111 ft 467 kts 209°
2026-04-16 10:08 30.30185 -14.51493 35112 ft 467 kts 209°
2026-04-16 10:09 30.24274 -14.54652 35111 ft 467 kts 209°
2026-04-16 10:09 30.18369 -14.57805 35111 ft 467 kts 209°
2026-04-16 10:10 30.12438 -14.60967 35111 ft 467 kts 209°
2026-04-16 10:10 30.06560 -14.64095 35112 ft 467 kts 209°
2026-04-16 10:11 30.00643 -14.67241 35112 ft 467 kts 208°
2026-04-16 10:11 29.94707 -14.70393 35111 ft 468 kts 208°
2026-04-16 10:12 29.88793 -14.73530 35107 ft 468 kts 209°
2026-04-16 10:12 29.84275 -14.75921 35102 ft 468 kts 209°
2026-04-16 10:13 29.79025 -14.78697 35100 ft 469 kts 209°
2026-04-16 10:13 29.73092 -14.81833 35108 ft 470 kts 210°
2026-04-16 10:14 29.67133 -14.84980 35110 ft 470 kts 210°
2026-04-16 10:14 29.61170 -14.88123 35110 ft 470 kts 210°
2026-04-16 10:15 29.55254 -14.91236 35109 ft 470 kts 210°
2026-04-16 10:15 29.49246 -14.94395 35107 ft 471 kts 210°
2026-04-16 10:16 29.43323 -14.97504 35107 ft 471 kts 210°
2026-04-16 10:16 29.37342 -15.00640 35106 ft 471 kts 210°
2026-04-16 10:17 29.31384 -15.03760 35106 ft 471 kts 210°
2026-04-16 10:17 29.25410 -15.06883 35106 ft 468 kts 210°
2026-04-16 10:18 29.20173 -15.09616 35112 ft 466 kts 210°
2026-04-16 10:18 29.14263 -15.12701 35117 ft 465 kts 210°
2026-04-16 10:19 29.08388 -15.15765 35117 ft 466 kts 210°
2026-04-16 10:19 29.02489 -15.18840 35117 ft 466 kts 210°
2026-04-16 10:20 28.96591 -15.21908 34847 ft 466 kts 211°
2026-04-16 10:20 28.93638 -15.23441 34632 ft 466 kts 211°
2026-04-16 10:20 28.90694 -15.24970 34404 ft 467 kts 211°
2026-04-16 10:21 28.87702 -15.26522 34172 ft 467 kts 211°
2026-04-16 10:21 28.84734 -15.28061 33942 ft 468 kts 211°
2026-04-16 10:21 28.81785 -15.29589 33685 ft 469 kts 211°
2026-04-16 10:21 28.78801 -15.31135 33407 ft 470 kts 211°
2026-04-16 10:22 28.75846 -15.32664 33132 ft 471 kts 211°
2026-04-16 10:22 28.72848 -15.34215 32854 ft 472 kts 211°
2026-04-16 10:22 28.69834 -15.35772 32568 ft 472 kts 211°
2026-04-16 10:22 28.66868 -15.37303 32283 ft 473 kts 211°
2026-04-16 10:23 28.63843 -15.38865 32082 ft 473 kts 211°
2026-04-16 10:23 28.60856 -15.40405 32044 ft 474 kts 211°
2026-04-16 10:23 28.54836 -15.43506 32048 ft 475 kts 211°
2026-04-16 10:24 28.48797 -15.46613 32056 ft 475 kts 211°
2026-04-16 10:24 28.42788 -15.49700 32107 ft 476 kts 211°
2026-04-16 10:25 28.36712 -15.52818 32125 ft 476 kts 211°
2026-04-16 10:25 28.30890 -15.56233 32116 ft 466 kts 221°
2026-04-16 10:26 28.26280 -15.61142 31919 ft 447 kts 237°
2026-04-16 10:26 28.24338 -15.63866 31262 ft 447 kts 238°
2026-04-16 10:26 28.22421 -15.66620 30240 ft 448 kts 238°
2026-04-16 10:27 28.20501 -15.69381 28916 ft 451 kts 238°
2026-04-16 10:27 28.18588 -15.72124 27459 ft 458 kts 238°
2026-04-16 10:27 28.16595 -15.74974 25987 ft 463 kts 238°
2026-04-16 10:27 28.14597 -15.77813 24621 ft 462 kts 237°
2026-04-16 10:28 28.12604 -15.80639 23163 ft 464 kts 236°
2026-04-16 10:28 28.10606 -15.83461 22089 ft 457 kts 236°
2026-04-16 10:28 28.08637 -15.86237 21143 ft 449 kts 236°
2026-04-16 10:28 28.06694 -15.88973 20180 ft 444 kts 235°
2026-04-16 10:29 28.04778 -15.91674 19234 ft 438 kts 234°
2026-04-16 10:29 28.02885 -15.94345 18294 ft 434 kts 234°
2026-04-16 10:29 28.01020 -15.96973 17439 ft 429 kts 233°
2026-04-16 10:29 27.99182 -15.99557 16824 ft 418 kts 233°
2026-04-16 10:30 27.97383 -16.02083 16297 ft 406 kts 233°
2026-04-16 10:30 27.95636 -16.04535 15656 ft 399 kts 232°
2026-04-16 10:30 27.93901 -16.06969 14917 ft 390 kts 232°
2026-04-16 10:30 27.92176 -16.09241 13909 ft 377 kts 224°
2026-04-16 10:31 27.89941 -16.10726 13149 ft 378 kts 198°
2026-04-16 10:31 27.87275 -16.10949 13180 ft 395 kts 174°
2026-04-16 10:31 27.84669 -16.09920 13641 ft 403 kts 152°
2026-04-16 10:31 27.82477 -16.07831 13447 ft 429 kts 132°
2026-04-16 10:32 27.80962 -16.04847 13507 ft 434 kts 117°
2026-04-16 10:32 27.79735 -16.01822 13756 ft 417 kts 114°
2026-04-16 10:32 27.78991 -15.98693 13345 ft 405 kts 103°
2026-04-16 10:32 27.78474 -15.95646 12589 ft 388 kts 103°
2026-04-16 10:33 27.77888 -15.92777 11931 ft 375 kts 106°
2026-04-16 10:33 27.77189 -15.89965 11509 ft 361 kts 109°
2026-04-16 10:33 27.76468 -15.87354 10769 ft 348 kts 110°
2026-04-16 10:33 27.75477 -15.83969 9885 ft 337 kts 111°
2026-04-16 10:34 27.74986 -15.82302 9558 ft 329 kts 109°
2026-04-16 10:34 27.74602 -15.79787 8988 ft 323 kts 94°
2026-04-16 10:34 27.74743 -15.77305 8329 ft 318 kts 86°
2026-04-16 10:34 27.75002 -15.74851 7913 ft 312 kts 85°
2026-04-16 10:35 27.75263 -15.72448 7540 ft 305 kts 85°
2026-04-16 10:35 27.75510 -15.70108 7174 ft 299 kts 85°
2026-04-16 10:35 27.75744 -15.67818 6677 ft 289 kts 86°
2026-04-16 10:35 27.75965 -15.65585 6238 ft 284 kts 86°
2026-04-16 10:36 27.76179 -15.63385 5903 ft 279 kts 86°
2026-04-16 10:36 27.76384 -15.61244 5592 ft 275 kts 86°
2026-04-16 10:36 27.76588 -15.59097 5301 ft 271 kts 85°
2026-04-16 10:36 27.76786 -15.57019 5024 ft 266 kts 85°
2026-04-16 10:37 27.76980 -15.54942 4742 ft 262 kts 85°
2026-04-16 10:37 27.77177 -15.52915 4433 ft 257 kts 85°
2026-04-16 10:37 27.77360 -15.50968 4035 ft 249 kts 85°
2026-04-16 10:37 27.77536 -15.49060 3622 ft 240 kts 84°
2026-04-16 10:38 27.77731 -15.47203 3315 ft 235 kts 79°
2026-04-16 10:38 27.78456 -15.45587 3042 ft 229 kts 45°
2026-04-16 10:38 27.79711 -15.44605 3003 ft 214 kts 26°
2026-04-16 10:38 27.81044 -15.43979 2989 ft 198 kts 21°
2026-04-16 10:39 27.82280 -15.43474 2978 ft 182 kts 22°
2026-04-16 10:39 27.83462 -15.42973 2994 ft 177 kts 23°
2026-04-16 10:39 27.84603 -15.42469 3115 ft 175 kts 23°
2026-04-16 10:39 27.85688 -15.41985 3041 ft 157 kts 24°
2026-04-16 10:40 27.86634 -15.41563 2973 ft 140 kts 24°
2026-04-16 10:40 27.87582 -15.41317 2969 ft 144 kts 355°
2026-04-16 10:40 27.88516 -15.41795 3004 ft 150 kts 332°
2026-04-16 10:40 27.89368 -15.42502 2998 ft 153 kts 319°
2026-04-16 10:41 27.89720 -15.43640 2967 ft 167 kts 262°
2026-04-16 10:41 27.88801 -15.45083 3429 ft 174 kts 225°
2026-04-16 10:41 27.88258 -15.45749 3826 ft 172 kts 228°
2026-04-16 10:41 27.87495 -15.46777 4310 ft 177 kts 231°
2026-04-16 10:42 27.86698 -15.47911 4695 ft 192 kts 232°
2026-04-16 10:42 27.85856 -15.49156 5089 ft 208 kts 233°
2026-04-16 10:42 27.84952 -15.50517 5489 ft 222 kts 233°
2026-04-16 10:42 27.84030 -15.51909 5739 ft 222 kts 233°
2026-04-16 10:43 27.83105 -15.53310 5558 ft 222 kts 232°
2026-04-16 10:43 27.82182 -15.54708 5167 ft 222 kts 232°
2026-04-16 10:43 27.81270 -15.56085 5012 ft 218 kts 232°
2026-04-16 10:43 27.80355 -15.57464 5015 ft 219 kts 232°
2026-04-16 10:44 27.79442 -15.58838 5012 ft 218 kts 232°
2026-04-16 10:44 27.78533 -15.60212 4972 ft 213 kts 232°
2026-04-16 10:44 27.77672 -15.61513 4832 ft 199 kts 232°
2026-04-16 10:44 27.76878 -15.62714 4686 ft 185 kts 232°
2026-04-16 10:45 27.76133 -15.63839 4535 ft 172 kts 232°
2026-04-16 10:45 27.75434 -15.64894 4378 ft 160 kts 232°
2026-04-16 10:45 27.74772 -15.65890 4126 ft 158 kts 232°
2026-04-16 10:45 27.73999 -15.66758 3866 ft 157 kts 211°
2026-04-16 10:46 27.72999 -15.67242 3622 ft 157 kts 192°
2026-04-16 10:46 27.71923 -15.67382 3380 ft 156 kts 175°
2026-04-16 10:46 27.70851 -15.67187 3135 ft 155 kts 159°
2026-04-16 10:46 27.69589 -15.66454 3015 ft 153 kts 137°
2026-04-16 10:47 27.69073 -15.65915 3014 ft 152 kts 127°
2026-04-16 10:47 27.68479 -15.64933 3011 ft 149 kts 111°
2026-04-16 10:47 27.68150 -15.63851 3000 ft 146 kts 96°
2026-04-16 10:47 27.68113 -15.62347 2856 ft 142 kts 76°
2026-04-16 10:48 27.68267 -15.61626 2774 ft 140 kts 68°
2026-04-16 10:48 27.68679 -15.60654 2653 ft 138 kts 54°
2026-04-16 10:48 27.69290 -15.59823 2523 ft 136 kts 42°
2026-04-16 10:48 27.70056 -15.59189 2502 ft 136 kts 30°
2026-04-16 10:49 27.70932 -15.58783 2501 ft 137 kts 17°
2026-04-16 10:49 27.71893 -15.58624 2496 ft 140 kts
2026-04-16 10:49 27.72859 -15.58741 2516 ft 142 kts 351°
2026-04-16 10:49 27.73803 -15.59138 2515 ft 145 kts 339°
2026-04-16 10:50 27.74712 -15.59630 2503 ft 144 kts 343°
2026-04-16 10:50 27.75681 -15.59934 2495 ft 141 kts 356°
2026-04-16 10:50 27.76648 -15.59950 2502 ft 138 kts 11°
2026-04-16 10:50 27.77591 -15.59677 2640 ft 141 kts 24°
2026-04-16 10:51 27.78434 -15.59156 2787 ft 138 kts 37°
2026-04-16 10:51 27.79329 -15.58137 2783 ft 137 kts 51°
2026-04-16 10:51 27.79724 -15.57559 2792 ft 137 kts 51°
2026-04-16 10:51 27.80486 -15.56420 2889 ft 138 kts 52°
2026-04-16 10:52 27.81066 -15.55551 2898 ft 137 kts 52°
2026-04-16 10:52 27.81450 -15.54971 2898 ft 137 kts 52°
2026-04-16 10:52 27.82213 -15.53817 2896 ft 134 kts 51°
2026-04-16 10:52 27.82580 -15.53265 2888 ft 131 kts 50°
2026-04-16 10:53 27.83124 -15.52452 2895 ft 130 kts 51°
2026-04-16 10:53 27.83667 -15.51633 2951 ft 129 kts 50°
2026-04-16 10:53 27.84214 -15.50815 2898 ft 130 kts 50°
2026-04-16 10:53 27.84936 -15.49726 2831 ft 129 kts 50°
2026-04-16 10:54 27.85294 -15.49184 2813 ft 130 kts 49°
2026-04-16 10:54 27.85838 -15.48362 2806 ft 130 kts 49°
2026-04-16 10:54 27.86382 -15.47539 2798 ft 128 kts 49°
2026-04-16 10:54 27.86911 -15.46742 2553 ft 125 kts 50°
2026-04-16 10:55 27.87432 -15.45964 2246 ft 126 kts 51°
2026-04-16 10:55 27.87903 -15.45115 2146 ft 129 kts 63°
2026-04-16 10:55 27.88237 -15.44172 2067 ft 129 kts 61°
2026-04-16 10:55 27.88567 -15.43229 1973 ft 131 kts 75°
2026-04-16 10:56 27.88921 -15.41933 1819 ft 129 kts 58°
2026-04-16 10:56 27.89474 -15.41135 1490 ft 127 kts 45°
2026-04-16 10:56 27.89878 -15.40653 1280 ft 126 kts 44°
2026-04-16 10:56 27.90778 -15.39830 797 ft 128 kts 33°
2026-04-16 10:57 27.91297 -15.39489 482 ft 127 kts 24°
2026-04-16 10:57 27.92367 -15.39037 134 ft 122 kts 22°
2026-04-16 10:57 27.93032 -15.38730 88 ft 44 kts 15°
2026-04-16 10:57 27.93220 -15.38723 96 ft 20 kts 347°
2026-04-16 10:58 27.93306 -15.38743 102 ft 0 kts 348°